TimeCST,TemperatureF,Dew PointF,Humidity,Sea Level PressureIn,VisibilityMPH,Wind Direction,Wind SpeedMPH,Gust SpeedMPH,PrecipitationIn,Events,Conditions,WindDirDegrees,DateUTC
12:15 AM,45.5,30.7,56,29.69,10.0,NW,40.3,52.9,N/A,,Mostly Cloudy,310,2014-01-14 06:15:00
12:35 AM,43.7,30.4,59,29.72,10.0,NW,35.7,51.8,N/A,,Overcast,310,2014-01-14 06:35:00
12:55 AM,42.1,29.3,61,29.73,10.0,NW,32.2,44.9,N/A,,Overcast,320,2014-01-14 06:55:00
1:15 AM,40.1,29.5,66,29.74,10.0,NW,24.2,40.3,N/A,,Scattered Clouds,320,2014-01-14 07:15:00
1:35 AM,39.6,30.0,69,29.77,10.0,NW,31.1,42.6,N/A,,Mostly Cloudy,320,2014-01-14 07:35:00
1:55 AM,39.2,29.3,68,29.80,10.0,NW,27.6,39.1,N/A,,Overcast,320,2014-01-14 07:55:00
2:15 AM,37.4,27.5,67,29.82,10.0,NW,29.9,41.4,N/A,,Mostly Cloudy,320,2014-01-14 08:15:00
2:35 AM,36.9,27.0,67,29.84,10.0,NW,23.0,38.0,N/A,,Mostly Cloudy,320,2014-01-14 08:35:00
2:55 AM,36.5,26.2,66,29.86,10.0,NW,24.2,35.7,N/A,,Scattered Clouds,320,2014-01-14 08:55:00
3:15 AM,35.8,26.6,69,29.88,10.0,NW,26.5,38.0,N/A,,Scattered Clouds,320,2014-01-14 09:15:00
3:35 AM,35.6,25.7,67,29.89,10.0,NW,23.0,34.5,N/A,,Scattered Clouds,310,2014-01-14 09:35:00
3:55 AM,35.1,23.2,62,29.90,10.0,NW,28.8,38.0,N/A,,Scattered Clouds,320,2014-01-14 09:55:00
4:15 AM,33.8,22.8,64,29.90,10.0,NW,23.0,32.2,N/A,,Clear,320,2014-01-14 10:15:00
4:35 AM,33.1,21.9,64,29.92,10.0,NW,21.9,33.4,N/A,,Clear,320,2014-01-14 10:35:00
4:55 AM,32.0,21.0,64,29.94,10.0,NW,21.9,29.9,N/A,,Clear,320,2014-01-14 10:55:00
5:15 AM,32.0,19.6,60,29.95,10.0,NW,28.8,35.7,N/A,,Clear,320,2014-01-14 11:15:00
5:35 AM,31.5,19.0,60,29.97,10.0,NW,19.6,33.4,N/A,,Clear,320,2014-01-14 11:35:00
5:55 AM,31.5,20.1,63,29.97,10.0,NW,20.7,27.6,N/A,,Clear,310,2014-01-14 11:55:00
6:15 AM,31.6,18.1,57,29.99,10.0,NW,27.6,32.2,N/A,,Clear,310,2014-01-14 12:15:00
6:35 AM,31.1,17.2,57,30.00,10.0,NW,20.7,29.9,N/A,,Clear,320,2014-01-14 12:35:00
6:55 AM,30.9,15.8,54,30.01,10.0,NW,25.3,35.7,N/A,,Clear,320,2014-01-14 12:55:00
7:15 AM,30.0,15.8,56,30.02,10.0,NW,21.9,28.8,N/A,,Clear,320,2014-01-14 13:15:00
7:35 AM,30.0,14.7,53,30.04,10.0,NW,25.3,29.9,N/A,,Clear,320,2014-01-14 13:35:00
7:55 AM,29.8,12.7,49,30.04,10.0,NW,24.2,33.4,N/A,,Clear,320,2014-01-14 13:55:00
8:15 AM,29.3,11.3,47,30.05,10.0,NW,19.6,32.2,N/A,,Clear,320,2014-01-14 14:15:00
8:35 AM,29.8,10.8,45,30.07,10.0,NW,23.0,29.9,N/A,,Clear,310,2014-01-14 14:35:00
8:55 AM,30.2,10.4,44,30.08,10.0,NW,25.3,31.1,N/A,,Clear,320,2014-01-14 14:55:00
9:15 AM,31.1,10.4,42,30.10,10.0,NW,24.2,32.2,N/A,,Clear,320,2014-01-14 15:15:00
9:35 AM,31.6,10.0,41,30.11,10.0,NW,26.5,35.7,N/A,,Clear,320,2014-01-14 15:35:00
9:55 AM,32.0,9.7,39,30.12,10.0,NW,27.6,36.8,N/A,,Clear,320,2014-01-14 15:55:00
10:15 AM,32.2,7.7,36,30.13,10.0,NW,33.4,40.3,N/A,,Clear,320,2014-01-14 16:15:00
10:35 AM,32.4,5.5,32,30.14,10.0,NW,33.4,41.4,N/A,,Clear,320,2014-01-14 16:35:00
10:55 AM,32.9,6.8,33,30.14,10.0,NW,32.2,42.6,N/A,,Clear,320,2014-01-14 16:55:00
11:15 AM,32.9,4.8,31,30.14,10.0,NW,27.6,43.7,N/A,,Clear,320,2014-01-14 17:15:00
11:35 AM,33.1,4.5,30,30.14,10.0,NW,28.8,42.6,N/A,,Clear,320,2014-01-14 17:35:00
11:55 AM,33.1,1.9,27,30.15,10.0,NW,33.4,42.6,N/A,,Clear,320,2014-01-14 17:55:00
12:15 PM,33.3,1.9,27,30.15,10.0,NW,29.9,40.3,N/A,,Clear,320,2014-01-14 18:15:00
12:35 PM,33.3,2.1,27,30.14,10.0,NW,31.1,40.3,N/A,,Clear,320,2014-01-14 18:35:00
12:55 PM,33.8,2.5,27,30.15,10.0,NNW,32.2,39.1,N/A,,Clear,330,2014-01-14 18:55:00
1:15 PM,34.0,2.8,27,30.15,10.0,NNW,28.8,38.0,N/A,,Clear,330,2014-01-14 19:15:00
1:35 PM,34.7,3.0,26,30.15,10.0,NW,23.0,34.5,N/A,,Clear,320,2014-01-14 19:35:00
1:55 PM,34.5,2.3,26,30.15,10.0,NNW,24.2,38.0,N/A,,Clear,330,2014-01-14 19:55:00
2:15 PM,35.1,2.3,25,30.15,10.0,NNW,24.2,33.4,N/A,,Clear,330,2014-01-14 20:15:00
2:35 PM,34.9,-2.7,20,30.16,10.0,NW,28.8,38.0,N/A,,Clear,320,2014-01-14 20:35:00
2:55 PM,34.5,-2.0,21,30.17,10.0,NNW,28.8,40.3,N/A,,Clear,330,2014-01-14 20:55:00
3:15 PM,34.2,-3.6,20,30.17,10.0,NW,33.4,42.6,N/A,,Clear,320,2014-01-14 21:15:00
3:35 PM,33.8,-2.6,21,30.17,10.0,NW,25.3,36.8,N/A,,Clear,320,2014-01-14 21:35:00
3:55 PM,33.1,-0.6,24,30.18,10.0,NW,28.8,38.0,N/A,,Clear,320,2014-01-14 21:55:00
4:15 PM,32.4,1.0,26,30.19,10.0,NW,29.9,40.3,N/A,,Scattered Clouds,320,2014-01-14 22:15:00
4:35 PM,32.4,3.2,29,30.20,10.0,NW,31.1,36.8,N/A,,Mostly Cloudy,320,2014-01-14 22:35:00
4:55 PM,31.6,2.7,29,30.21,10.0,NW,29.9,43.7,N/A,,Mostly Cloudy,320,2014-01-14 22:55:00
5:15 PM,31.1,3.2,31,30.21,10.0,NW,23.0,36.8,N/A,,Mostly Cloudy,320,2014-01-14 23:15:00
5:35 PM,30.4,4.1,33,30.21,10.0,NNW,26.5,32.2,N/A,,Overcast,330,2014-01-14 23:35:00
5:55 PM,30.2,5.0,34,30.21,10.0,NNW,20.7,31.1,N/A,,Overcast,340,2014-01-14 23:55:00
6:15 PM,29.7,3.6,33,30.22,10.0,NNW,23.0,28.8,N/A,,Overcast,340,2014-01-15 00:15:00
6:35 PM,28.4,3.7,35,30.23,10.0,NNW,20.7,26.5,N/A,,Overcast,330,2014-01-15 00:35:00
6:55 PM,27.7,4.5,37,30.22,10.0,NNW,16.1,-,N/A,,Mostly Cloudy,330,2014-01-15 00:55:00
7:15 PM,27.0,5.5,40,30.23,10.0,NW,16.1,20.7,N/A,,Mostly Cloudy,320,2014-01-15 01:15:00
7:35 PM,26.4,6.4,43,30.23,10.0,NNW,12.7,18.4,N/A,,Overcast,330,2014-01-15 01:35:00
7:55 PM,25.2,7.5,47,30.23,10.0,NW,12.7,-,N/A,,Scattered Clouds,320,2014-01-15 01:55:00
8:15 PM,25.5,8.6,49,30.23,10.0,NW,11.5,-,N/A,,Mostly Cloudy,320,2014-01-15 02:15:00
8:35 PM,26.6,9.3,48,30.23,10.0,NNW,13.8,-,N/A,,Overcast,330,2014-01-15 02:35:00
8:55 PM,26.6,8.8,47,30.23,10.0,NNW,11.5,-,N/A,,Overcast,330,2014-01-15 02:55:00
9:15 PM,26.6,8.8,47,30.24,10.0,NNW,15.0,23.0,N/A,,Overcast,330,2014-01-15 03:15:00
9:35 PM,26.6,8.6,47,30.24,10.0,NNW,20.7,27.6,N/A,,Overcast,330,2014-01-15 03:35:00
9:55 PM,25.9,8.2,47,30.24,10.0,North,18.4,-,N/A,,Overcast,350,2014-01-15 03:55:00
10:15 PM,25.5,8.4,48,30.24,10.0,North,11.5,15.0,N/A,,Overcast,350,2014-01-15 04:15:00
10:35 PM,24.8,8.4,50,30.24,10.0,North,12.7,-,N/A,,Overcast,350,2014-01-15 04:35:00
10:55 PM,23.9,8.6,52,30.24,10.0,NNW,10.4,-,N/A,,Mostly Cloudy,340,2014-01-15 04:55:00
11:15 PM,23.2,9.3,55,30.24,10.0,NNW,11.5,-,N/A,,Overcast,330,2014-01-15 05:15:00
11:35 PM,23.2,10.2,58,30.24,10.0,NNW,11.5,-,N/A,,Mostly Cloudy,330,2014-01-15 05:35:00
11:55 PM,21.9,10.2,61,30.23,10.0,NNW,9.2,-,N/A,,Scattered Clouds,330,2014-01-15 05:55:00